AL YAH 3 (43174 NORAD) Tracking and Keplerian Element Data

This shows tracking and keplerian element data for the satellite.

Feedback or suggestion? Click here.




ElementValue
Catalog43174
NameAL YAH 3
Epoch Orbit2470
Epoch Day286.87410654
Epoch Year2024
RAAN80.8292
Inclination0.0422
Eccentricity0.0002168
Argument of Perigee145.3477
Mean Anonmoly90.3355
Mean Motion1.00272844
Decay Rate-1.56E-06
L11 43174U 18012A 24286.87410654 -.00000156 00000+0 00000+0 0 9999
L22 43174 0.0422 80.8292 0002168 145.3477 90.3355 1.00272844 24702



Live tracking and technical data element details for AL YAH 3 (NORAD 43174). AL YAH 3 can be tracked NOW for your location showing map with azimuth and elevation plus other details from your city location.







IsCatalogInMostPopularTable: catalog: 43174, numindb: 1027
Update: records affected: 1



GetName: 43174 AL YAH 3

Hit Count: updated at: Mon, 13 Jan 2025 21:27:40 GMT